AFL1256 UUEE-URKK

Flight info

Callsign AFL1256
Flight time 1h 43m
Altitude 39000
Route EMGAS3E EMGAS T828 EKTUT N72 UMSIS N166 GOTIL/K0885F380 G534 GISID/K0895F390 L91 KL A100 AMEPU W70 BALEG BALEG6Y
Aircraft B77W/H-SDE1E2E3FGHIJ2J3J4J5M1RWXY/LB1D1

Departure

Time 2026-05-06 18:38
Airport Sheremetyevo International Airport (UUEE)

Arrival

Time 2026-05-06 20:22
Airport Krasnodar Pashkovsky International Airport (URKK)
Time Latitude Longitude Altitude Speed Heading
2026-05-06 18:15 55.97799 37.41910 644 ft 0 kts 304°
2026-05-06 18:26 55.97798 37.41912 644 ft 2 kts 304°
2026-05-06 18:26 55.97789 37.41937 649 ft 2 kts 304°
2026-05-06 18:27 55.97779 37.41961 648 ft 2 kts 304°
2026-05-06 18:27 55.97770 37.41986 648 ft 2 kts 303°
2026-05-06 18:27 55.97761 37.42011 647 ft 2 kts 301°
2026-05-06 18:27 55.97753 37.42036 648 ft 2 kts 274°
2026-05-06 18:28 55.97754 37.42066 646 ft 2 kts 259°
2026-05-06 18:28 55.97758 37.42094 646 ft 2 kts 255°
2026-05-06 18:28 55.97762 37.42123 650 ft 2 kts 252°
2026-05-06 18:28 55.97767 37.42151 649 ft 2 kts 251°
2026-05-06 18:29 55.97773 37.42179 646 ft 2 kts 251°
2026-05-06 18:29 55.97778 37.42206 652 ft 2 kts 251°
2026-05-06 18:29 55.97781 37.42219 650 ft 1 kts 252°
2026-05-06 18:29 55.97781 37.42220 650 ft 0 kts 252°
2026-05-06 18:30 55.97765 37.42166 646 ft 9 kts 231°
2026-05-06 18:30 55.97708 37.42130 647 ft 9 kts 197°
2026-05-06 18:31 55.97664 37.42036 648 ft 13 kts 250°
2026-05-06 18:31 55.97630 37.41822 648 ft 21 kts 255°
2026-05-06 18:31 55.97592 37.41572 644 ft 21 kts 255°
2026-05-06 18:31 55.97555 37.41322 645 ft 21 kts 255°
2026-05-06 18:32 55.97518 37.41071 646 ft 21 kts 255°
2026-05-06 18:32 55.97482 37.40822 648 ft 21 kts 254°
2026-05-06 18:32 55.97443 37.40572 649 ft 21 kts 254°
2026-05-06 18:32 55.97404 37.40323 645 ft 21 kts 254°
2026-05-06 18:33 55.97368 37.40073 646 ft 21 kts 256°
2026-05-06 18:33 55.97331 37.39823 649 ft 21 kts 255°
2026-05-06 18:33 55.97293 37.39573 648 ft 21 kts 255°
2026-05-06 18:33 55.97256 37.39323 649 ft 21 kts 255°
2026-05-06 18:34 55.97219 37.39077 644 ft 21 kts 255°
2026-05-06 18:34 55.97185 37.38847 650 ft 12 kts 255°
2026-05-06 18:34 55.97160 37.38705 644 ft 12 kts 242°
2026-05-06 18:34 55.97108 37.38664 648 ft 8 kts 181°
2026-05-06 18:35 55.97052 37.38685 646 ft 8 kts 162°
2026-05-06 18:35 55.97010 37.38749 648 ft 8 kts 118°
2026-05-06 18:35 55.97012 37.38861 647 ft 10 kts 77°
2026-05-06 18:35 55.97018 37.38905 645 ft 0 kts 76°
2026-05-06 18:37 55.97057 37.39182 650 ft 63 kts 76°
2026-05-06 18:38 55.97246 37.40431 649 ft 143 kts 75°
2026-05-06 18:38 55.97555 37.42441 890 ft 180 kts 75°
2026-05-06 18:38 55.97858 37.44587 1770 ft 177 kts 74°
2026-05-06 18:38 55.98163 37.46723 2678 ft 178 kts 74°
2026-05-06 18:39 55.98476 37.48937 3402 ft 188 kts 75°
2026-05-06 18:39 55.98803 37.51261 4045 ft 201 kts 74°
2026-05-06 18:39 55.99170 37.53873 4254 ft 233 kts 74°
2026-05-06 18:40 56.00015 37.59961 5369 ft 266 kts 74°
2026-05-06 18:40 56.00583 37.63094 6026 ft 272 kts 56°
2026-05-06 18:40 56.01879 37.65470 6678 ft 268 kts 24°
2026-05-06 18:40 56.03664 37.66353 7211 ft 269 kts 353°
2026-05-06 18:41 56.05519 37.65761 7902 ft 269 kts 339°
2026-05-06 18:41 56.07312 37.64825 8639 ft 274 kts 338°
2026-05-06 18:41 56.09119 37.63740 9015 ft 273 kts 328°
2026-05-06 18:41 56.10549 37.61588 9014 ft 269 kts 301°
2026-05-06 18:42 56.11264 37.58552 9098 ft 265 kts 279°
2026-05-06 18:42 56.11355 37.55264 9897 ft 265 kts 263°
2026-05-06 18:42 56.10900 37.52023 10581 ft 277 kts 253°
2026-05-06 18:42 56.10230 37.48706 11299 ft 288 kts 251°
2026-05-06 18:43 56.09534 37.45289 12182 ft 294 kts 252°
2026-05-06 18:43 56.08848 37.41801 12794 ft 299 kts 252°
2026-05-06 18:43 56.08164 37.38252 12909 ft 304 kts 253°
2026-05-06 18:43 56.07427 37.34721 12906 ft 302 kts 244°
2026-05-06 18:44 56.06158 37.31708 13021 ft 309 kts 226°
2026-05-06 18:44 56.04428 37.29329 13912 ft 316 kts 220°
2026-05-06 18:44 56.02629 37.27050 14982 ft 317 kts 219°
2026-05-06 18:44 56.00843 37.24802 16014 ft 320 kts 219°
2026-05-06 18:45 55.99010 37.22487 17008 ft 325 kts 218°
2026-05-06 18:45 55.97151 37.20132 17999 ft 330 kts 218°
2026-05-06 18:45 55.95263 37.17731 18900 ft 335 kts 218°
2026-05-06 18:45 55.93350 37.15297 19780 ft 339 kts 218°
2026-05-06 18:46 55.91419 37.12836 20673 ft 344 kts 218°
2026-05-06 18:46 55.89461 37.10344 21556 ft 348 kts 218°
2026-05-06 18:46 55.87477 37.07822 22434 ft 353 kts 218°
2026-05-06 18:46 55.85419 37.05377 23312 ft 359 kts 211°
2026-05-06 18:47 55.83170 37.03447 24026 ft 366 kts 206°
2026-05-06 18:47 55.80811 37.01661 24753 ft 371 kts 206°
2026-05-06 18:47 55.78432 36.99813 25477 ft 375 kts 207°
2026-05-06 18:47 55.76042 36.97893 26178 ft 379 kts 207°
2026-05-06 18:48 55.73523 36.96405 26740 ft 389 kts 192°
2026-05-06 18:48 55.71011 36.96321 27301 ft 401 kts 175°
2026-05-06 18:48 55.68541 36.97080 27939 ft 405 kts 172°
2026-05-06 18:48 55.65752 36.97969 28634 ft 409 kts 173°
2026-05-06 18:49 55.62932 36.98801 29323 ft 412 kts 173°
2026-05-06 18:49 55.60173 37.00273 29782 ft 423 kts 155°
2026-05-06 18:49 55.57752 37.03336 30290 ft 435 kts 135°
2026-05-06 18:49 55.55820 37.07447 30823 ft 437 kts 130°
2026-05-06 18:50 55.53943 37.11691 31369 ft 440 kts 129°
2026-05-06 18:50 55.52046 37.15965 31886 ft 443 kts 130°
2026-05-06 18:50 55.50118 37.20244 32392 ft 446 kts 130°
2026-05-06 18:50 55.48163 37.24523 32879 ft 449 kts 130°
2026-05-06 18:51 55.46236 37.28709 33333 ft 453 kts 130°
2026-05-06 18:51 55.44236 37.33033 33782 ft 456 kts 130°
2026-05-06 18:51 55.42225 37.37376 34164 ft 459 kts 130°
2026-05-06 18:51 55.40224 37.41690 34525 ft 462 kts 130°
2026-05-06 18:52 55.38178 37.46099 34865 ft 465 kts 130°
2026-05-06 18:52 55.36121 37.50522 35178 ft 468 kts 130°
2026-05-06 18:52 55.34009 37.54906 35458 ft 472 kts 135°
2026-05-06 18:52 55.31682 37.59010 35593 ft 477 kts 138°
2026-05-06 18:53 55.29224 37.62964 35695 ft 480 kts 144°
2026-05-06 18:53 55.26354 37.65940 35787 ft 481 kts 160°
2026-05-06 18:53 55.23139 37.67478 36032 ft 475 kts 175°
2026-05-06 18:53 55.19964 37.68118 36299 ft 476 kts 176°
2026-05-06 18:54 55.16574 37.68788 36650 ft 476 kts 175°
2026-05-06 18:54 55.13289 37.69488 37023 ft 475 kts 175°
2026-05-06 18:54 55.10053 37.70226 37366 ft 475 kts 174°
2026-05-06 18:54 55.06736 37.71014 37691 ft 475 kts 174°
2026-05-06 18:55 55.03508 37.71787 38025 ft 474 kts 174°
2026-05-06 18:55 55.00200 37.72574 38347 ft 474 kts 174°
2026-05-06 18:55 54.96993 37.73587 38621 ft 475 kts 169°
2026-05-06 18:55 54.93776 37.75014 38805 ft 477 kts 167°
2026-05-06 18:56 54.90545 37.76486 38845 ft 481 kts 168°
2026-05-06 18:56 54.83987 37.78627 38901 ft 478 kts 175°
2026-05-06 18:57 54.77410 37.79912 38901 ft 473 kts 175°
2026-05-06 18:57 54.70891 37.81325 38904 ft 471 kts 174°
2026-05-06 18:58 54.64393 37.82799 38908 ft 470 kts 177°
2026-05-06 18:58 54.57867 37.83262 38916 ft 469 kts 181°
2026-05-06 18:59 54.51370 37.83517 38907 ft 471 kts 180°
2026-05-06 18:59 54.44861 37.84715 38893 ft 475 kts 162°
2026-05-06 19:00 54.38995 37.89963 38915 ft 477 kts 152°
2026-05-06 19:00 54.33197 37.95613 38915 ft 480 kts 152°
2026-05-06 19:01 54.27335 38.01165 38913 ft 483 kts 153°
2026-05-06 19:01 54.21411 38.06670 38906 ft 484 kts 153°
2026-05-06 19:02 54.15517 38.12115 38902 ft 485 kts 153°
2026-05-06 19:02 54.09583 38.17586 38909 ft 484 kts 153°
2026-05-06 19:03 54.03674 38.23020 38913 ft 483 kts 153°
2026-05-06 19:03 53.97761 38.28442 38907 ft 482 kts 153°
2026-05-06 19:04 53.91871 38.33824 38905 ft 480 kts 153°
2026-05-06 19:04 53.85982 38.39188 38909 ft 479 kts 153°
2026-05-06 19:05 53.80106 38.44525 38909 ft 479 kts 153°
2026-05-06 19:05 53.74082 38.49230 38908 ft 476 kts 162°
2026-05-06 19:06 53.67731 38.51989 38908 ft 474 kts 171°
2026-05-06 19:06 53.61197 38.54059 38910 ft 475 kts 171°
2026-05-06 19:07 53.54738 38.56116 38907 ft 476 kts 171°
2026-05-06 19:07 53.48219 38.58232 38908 ft 476 kts 170°
2026-05-06 19:08 53.41710 38.60360 38906 ft 477 kts 170°
2026-05-06 19:08 53.35184 38.62489 38908 ft 478 kts 170°
2026-05-06 19:09 53.28663 38.64608 38906 ft 478 kts 170°
2026-05-06 19:09 53.22129 38.66723 38905 ft 478 kts 170°
2026-05-06 19:10 53.15587 38.68833 38909 ft 478 kts 170°
2026-05-06 19:10 53.09049 38.70936 38905 ft 478 kts 170°
2026-05-06 19:11 53.02517 38.73030 38908 ft 478 kts 170°
2026-05-06 19:11 52.95997 38.75115 38913 ft 478 kts 170°
2026-05-06 19:12 52.89500 38.77185 38911 ft 478 kts 170°
2026-05-06 19:12 52.82966 38.79261 38912 ft 478 kts 170°
2026-05-06 19:13 52.76426 38.81332 38913 ft 478 kts 170°
2026-05-06 19:13 52.69872 38.83402 38925 ft 478 kts 170°
2026-05-06 19:14 52.63327 38.85463 38916 ft 478 kts 170°
2026-05-06 19:14 52.56826 38.87504 38912 ft 479 kts 170°
2026-05-06 19:15 52.50277 38.89554 38918 ft 478 kts 170°
2026-05-06 19:15 52.43738 38.91606 38924 ft 478 kts 168°
2026-05-06 19:16 52.37436 38.95139 38926 ft 480 kts 155°
2026-05-06 19:16 52.31691 39.00703 38930 ft 481 kts 146°
2026-05-06 19:17 52.26161 39.06865 38912 ft 481 kts 147°
2026-05-06 19:17 52.20564 39.12884 38911 ft 481 kts 148°
2026-05-06 19:18 52.14939 39.18800 38925 ft 481 kts 148°
2026-05-06 19:18 52.09353 39.24691 38932 ft 481 kts 147°
2026-05-06 19:19 52.03746 39.30632 38927 ft 481 kts 147°
2026-05-06 19:19 51.98130 39.36572 38925 ft 481 kts 147°
2026-05-06 19:20 51.92508 39.42496 38937 ft 481 kts 147°
2026-05-06 19:20 51.86892 39.48393 38932 ft 481 kts 147°
2026-05-06 19:21 51.81298 39.54251 38931 ft 481 kts 147°
2026-05-06 19:21 51.75664 39.60106 38918 ft 481 kts 149°
2026-05-06 19:22 51.69663 39.64781 38912 ft 480 kts 161°
2026-05-06 19:22 51.63333 39.68176 38919 ft 479 kts 162°
2026-05-06 19:23 51.56995 39.71529 38920 ft 479 kts 162°
2026-05-06 19:23 51.51730 39.74354 38919 ft 480 kts 162°
2026-05-06 19:24 51.45400 39.77773 38919 ft 480 kts 162°
2026-05-06 19:24 51.38048 39.81737 38917 ft 480 kts 161°
2026-05-06 19:25 51.32736 39.84591 38924 ft 480 kts 161°
2026-05-06 19:25 51.26401 39.87983 38923 ft 480 kts 161°
2026-05-06 19:26 51.20063 39.91368 38923 ft 480 kts 161°
2026-05-06 19:26 51.13762 39.94725 38925 ft 480 kts 161°
2026-05-06 19:27 51.07409 39.98092 38924 ft 480 kts 162°
2026-05-06 19:27 51.01061 40.01428 38937 ft 481 kts 162°
2026-05-06 19:28 50.94708 40.04760 38928 ft 481 kts 161°
2026-05-06 19:28 50.88355 40.08086 38927 ft 481 kts 161°
2026-05-06 19:29 50.82001 40.11403 38933 ft 481 kts 161°
2026-05-06 19:29 50.75651 40.14710 38928 ft 481 kts 161°
2026-05-06 19:30 50.69286 40.18017 38935 ft 481 kts 161°
2026-05-06 19:30 50.62929 40.21311 38932 ft 481 kts 161°
2026-05-06 19:31 50.56557 40.24603 38925 ft 481 kts 161°
2026-05-06 19:31 50.47050 40.29499 38937 ft 482 kts 161°
2026-05-06 19:32 50.40673 40.32770 38944 ft 482 kts 161°
2026-05-06 19:32 50.34304 40.36028 38939 ft 482 kts 161°
2026-05-06 19:33 50.27933 40.39279 38934 ft 482 kts 161°
2026-05-06 19:33 50.21537 40.42533 38934 ft 482 kts 161°
2026-05-06 19:34 50.15153 40.45773 38939 ft 482 kts 161°
2026-05-06 19:34 50.08765 40.49006 38935 ft 482 kts 161°
2026-05-06 19:35 50.02373 40.52231 38942 ft 482 kts 161°
2026-05-06 19:35 49.95987 40.55450 38942 ft 483 kts 161°
2026-05-06 19:36 49.89634 40.58645 38943 ft 483 kts 161°
2026-05-06 19:36 49.83239 40.61853 38947 ft 483 kts 161°
2026-05-06 19:37 49.76845 40.65051 38943 ft 483 kts 161°
2026-05-06 19:37 49.70441 40.68245 38948 ft 483 kts 161°
2026-05-06 19:38 49.63954 40.70676 38951 ft 484 kts 171°
2026-05-06 19:38 49.57190 40.71231 38951 ft 485 kts 180°
2026-05-06 19:39 49.50489 40.70904 38958 ft 485 kts 180°
2026-05-06 19:39 49.43730 40.70668 38952 ft 485 kts 180°
2026-05-06 19:40 49.37049 40.69215 38964 ft 487 kts 195°
2026-05-06 19:40 49.30762 40.65308 38966 ft 488 kts 206°
2026-05-06 19:41 49.24736 40.60473 38964 ft 489 kts 207°
2026-05-06 19:41 49.18694 40.55661 38964 ft 489 kts 206°
2026-05-06 19:42 49.12669 40.50962 38969 ft 490 kts 206°
2026-05-06 19:42 49.06585 40.46255 38968 ft 490 kts 206°
2026-05-06 19:43 49.00513 40.41565 38973 ft 489 kts 206°
2026-05-06 19:43 48.94437 40.36881 38972 ft 489 kts 206°
2026-05-06 19:44 48.88145 40.33024 38977 ft 487 kts 195°
2026-05-06 19:44 48.81534 40.30968 38983 ft 485 kts 186°
2026-05-06 19:45 48.74861 40.29643 38985 ft 485 kts 186°
2026-05-06 19:45 48.68146 40.28284 38985 ft 485 kts 186°
2026-05-06 19:46 48.61454 40.26875 38984 ft 485 kts 186°
2026-05-06 19:46 48.54765 40.25459 38986 ft 486 kts 186°
2026-05-06 19:47 48.48072 40.24052 38994 ft 486 kts 186°
2026-05-06 19:47 48.41362 40.22659 38996 ft 486 kts 186°
2026-05-06 19:48 48.34707 40.21286 39001 ft 486 kts 186°
2026-05-06 19:48 48.27996 40.19903 39002 ft 486 kts 186°
2026-05-06 19:49 48.21306 40.18526 39009 ft 485 kts 186°
2026-05-06 19:49 48.14609 40.17151 39011 ft 485 kts 186°
2026-05-06 19:50 48.07926 40.15754 39015 ft 485 kts 188°
2026-05-06 19:50 48.01284 40.13821 39019 ft 486 kts 190°
2026-05-06 19:51 47.94703 40.11823 39025 ft 485 kts 190°
2026-05-06 19:51 47.88069 40.09828 39027 ft 486 kts 192°
2026-05-06 19:52 47.81558 40.07080 39037 ft 486 kts 195°
2026-05-06 19:52 47.75066 40.04191 39038 ft 487 kts 195°
2026-05-06 19:53 47.68598 40.01363 39047 ft 488 kts 195°
2026-05-06 19:53 47.62077 39.98550 39051 ft 488 kts 195°
2026-05-06 19:54 47.55542 39.95739 39048 ft 489 kts 195°
2026-05-06 19:54 47.49008 39.92941 39049 ft 489 kts 194°
2026-05-06 19:55 47.42426 39.90516 39049 ft 488 kts 192°
2026-05-06 19:55 47.35797 39.88224 39051 ft 488 kts 192°
2026-05-06 19:56 47.29196 39.85876 39050 ft 487 kts 192°
2026-05-06 19:56 47.22608 39.83506 39056 ft 487 kts 192°
2026-05-06 19:57 47.16072 39.81172 39053 ft 486 kts 192°
2026-05-06 19:57 47.09495 39.78843 39056 ft 485 kts 192°
2026-05-06 19:58 47.02941 39.76529 39061 ft 484 kts 192°
2026-05-06 19:58 46.96387 39.74217 39063 ft 484 kts 192°
2026-05-06 19:59 46.93092 39.73058 38495 ft 493 kts 192°
2026-05-06 19:59 46.89744 39.71880 37760 ft 494 kts 192°
2026-05-06 19:59 46.86407 39.70707 37029 ft 491 kts 192°
2026-05-06 19:59 46.83086 39.69541 36292 ft 489 kts 191°
2026-05-06 20:00 46.79819 39.68395 35554 ft 489 kts 191°
2026-05-06 20:00 46.76512 39.67238 34708 ft 490 kts 191°
2026-05-06 20:00 46.73179 39.66074 33829 ft 492 kts 190°
2026-05-06 20:00 46.69839 39.64910 32822 ft 494 kts 190°
2026-05-06 20:01 46.66493 39.63746 31804 ft 496 kts 191°
2026-05-06 20:01 46.63134 39.62578 30791 ft 499 kts 191°
2026-05-06 20:01 46.59767 39.61406 30070 ft 495 kts 191°
2026-05-06 20:01 46.56434 39.60247 29284 ft 491 kts 191°
2026-05-06 20:02 46.53127 39.59098 28580 ft 485 kts 191°
2026-05-06 20:02 46.49870 39.57968 27916 ft 479 kts 191°
2026-05-06 20:02 46.46639 39.56850 27251 ft 474 kts 191°
2026-05-06 20:02 46.43446 39.55747 26586 ft 470 kts 191°
2026-05-06 20:03 46.40278 39.54654 25933 ft 466 kts 191°
2026-05-06 20:03 46.37137 39.53575 25295 ft 462 kts 191°
2026-05-06 20:03 46.34015 39.52574 24660 ft 458 kts 190°
2026-05-06 20:03 46.30906 39.51633 24037 ft 454 kts 189°
2026-05-06 20:04 46.27822 39.50718 23360 ft 451 kts 189°
2026-05-06 20:04 46.24761 39.49810 22646 ft 447 kts 190°
2026-05-06 20:04 46.21724 39.48903 22006 ft 443 kts 190°
2026-05-06 20:04 46.18760 39.48011 21386 ft 438 kts 190°
2026-05-06 20:05 46.15789 39.47113 20778 ft 434 kts 190°
2026-05-06 20:05 46.12847 39.46223 20172 ft 430 kts 191°
2026-05-06 20:05 46.09932 39.45342 19574 ft 426 kts 191°
2026-05-06 20:05 46.07046 39.44470 18989 ft 422 kts 191°
2026-05-06 20:06 46.04173 39.43603 18406 ft 419 kts 191°
2026-05-06 20:06 46.01330 39.42746 17740 ft 416 kts 191°
2026-05-06 20:06 45.98509 39.41896 17103 ft 412 kts 191°
2026-05-06 20:06 45.95715 39.41056 16531 ft 408 kts 191°
2026-05-06 20:07 45.92955 39.40226 15939 ft 404 kts 191°
2026-05-06 20:07 45.90220 39.39406 15371 ft 400 kts 191°
2026-05-06 20:07 45.87508 39.38592 14816 ft 396 kts 191°
2026-05-06 20:07 45.84822 39.37774 14251 ft 393 kts 191°
2026-05-06 20:08 45.82160 39.36956 13670 ft 390 kts 191°
2026-05-06 20:08 45.79513 39.36142 13058 ft 387 kts 191°
2026-05-06 20:08 45.76886 39.35337 12481 ft 383 kts 191°
2026-05-06 20:08 45.74329 39.34554 11928 ft 380 kts 191°
2026-05-06 20:09 45.71749 39.33766 11384 ft 376 kts 191°
2026-05-06 20:09 45.69211 39.32992 10998 ft 369 kts 191°
2026-05-06 20:09 45.66753 39.32260 10837 ft 350 kts 188°
2026-05-06 20:09 45.64385 39.32265 10677 ft 334 kts 167°
2026-05-06 20:10 45.62234 39.33243 10566 ft 317 kts 159°
2026-05-06 20:10 45.60197 39.34302 10417 ft 307 kts 159°
2026-05-06 20:10 45.58880 39.34987 10334 ft 300 kts 159°
2026-05-06 20:10 45.56949 39.35988 10225 ft 291 kts 159°
2026-05-06 20:11 45.55075 39.36955 10089 ft 282 kts 159°
2026-05-06 20:11 45.53233 39.37901 9784 ft 280 kts 159°
2026-05-06 20:11 45.51406 39.38834 9471 ft 278 kts 159°
2026-05-06 20:11 45.49590 39.39760 9165 ft 276 kts 159°
2026-05-06 20:12 45.47787 39.40675 8856 ft 274 kts 160°
2026-05-06 20:12 45.45990 39.41586 8540 ft 273 kts 160°
2026-05-06 20:12 45.44206 39.42489 8240 ft 271 kts 160°
2026-05-06 20:12 45.42434 39.43385 7937 ft 270 kts 160°
2026-05-06 20:13 45.40673 39.44274 7641 ft 268 kts 160°
2026-05-06 20:13 45.38918 39.45159 7337 ft 267 kts 161°
2026-05-06 20:13 45.37163 39.46043 7038 ft 266 kts 161°
2026-05-06 20:13 45.35419 39.46922 6734 ft 266 kts 161°
2026-05-06 20:14 45.33694 39.47790 6435 ft 265 kts 161°
2026-05-06 20:14 45.31957 39.48663 6118 ft 265 kts 161°
2026-05-06 20:14 45.30217 39.49538 5771 ft 265 kts 161°
2026-05-06 20:14 45.28476 39.50413 5434 ft 266 kts 161°
2026-05-06 20:15 45.26730 39.51288 5119 ft 265 kts 161°
2026-05-06 20:15 45.24989 39.52160 4813 ft 265 kts 161°
2026-05-06 20:15 45.23229 39.52651 4480 ft 256 kts 185°
2026-05-06 20:15 45.21576 39.51869 4215 ft 250 kts 216°
2026-05-06 20:16 45.20334 39.50182 3950 ft 247 kts 230°
2026-05-06 20:16 45.19285 39.48285 3653 ft 247 kts 233°
2026-05-06 20:16 45.18265 39.46349 3500 ft 242 kts 233°
2026-05-06 20:16 45.17267 39.44472 3373 ft 234 kts 233°
2026-05-06 20:17 45.16298 39.42664 3268 ft 225 kts 233°
2026-05-06 20:17 45.15369 39.40939 3168 ft 216 kts 233°
2026-05-06 20:17 45.14479 39.39285 3004 ft 207 kts 233°
2026-05-06 20:17 45.13620 39.37692 2835 ft 201 kts 233°
2026-05-06 20:18 45.12780 39.36131 2578 ft 197 kts 233°
2026-05-06 20:18 45.11986 39.34660 2461 ft 179 kts 233°
2026-05-06 20:18 45.11260 39.33313 2211 ft 164 kts 234°
2026-05-06 20:18 45.10600 39.32090 2024 ft 151 kts 234°
2026-05-06 20:19 45.09961 39.30904 1870 ft 152 kts 234°
2026-05-06 20:19 45.09331 39.29735 1694 ft 151 kts 234°
2026-05-06 20:19 45.08697 39.28561 1499 ft 150 kts 234°
2026-05-06 20:19 45.08065 39.27392 1330 ft 149 kts 234°
2026-05-06 20:20 45.07434 39.26236 1139 ft 149 kts 233°
2026-05-06 20:20 45.06796 39.25082 937 ft 148 kts 235°
2026-05-06 20:20 45.06181 39.23920 753 ft 147 kts 234°
2026-05-06 20:20 45.05571 39.22767 555 ft 147 kts 233°
2026-05-06 20:21 45.04957 39.21618 376 ft 146 kts 232°
2026-05-06 20:21 45.04337 39.20483 237 ft 146 kts 232°
2026-05-06 20:21 45.03717 39.19345 134 ft 143 kts 232°
2026-05-06 20:21 45.03174 39.18351 125 ft 107 kts 232°
2026-05-06 20:22 45.02844 39.17746 123 ft 55 kts 233°
2026-05-06 20:22 45.02695 39.17472 122 ft 30 kts 232°
2026-05-06 20:22 45.02645 39.17317 121 ft 13 kts 284°
2026-05-06 20:22 45.02704 39.17220 122 ft 13 kts 321°
2026-05-06 20:23 45.02776 39.17141 122 ft 13 kts 322°
2026-05-06 20:23 45.02868 39.17041 123 ft 22 kts 322°
2026-05-06 20:23 45.02995 39.16904 125 ft 23 kts 323°
2026-05-06 20:23 45.03122 39.16768 122 ft 23 kts 323°
2026-05-06 20:24 45.03248 39.16631 123 ft 23 kts 322°
2026-05-06 20:24 45.03375 39.16493 123 ft 23 kts 322°
2026-05-06 20:24 45.03502 39.16357 120 ft 23 kts 323°
2026-05-06 20:24 45.03629 39.16220 123 ft 23 kts 322°
2026-05-06 20:25 45.03726 39.16101 120 ft 15 kts 301°
2026-05-06 20:25 45.03737 39.15957 125 ft 15 kts 269°
2026-05-06 20:25 45.03736 39.15810 125 ft 15 kts 270°
2026-05-06 20:25 45.03737 39.15655 123 ft 18 kts 275°
2026-05-06 20:26 45.03776 39.15466 121 ft 21 kts 292°
2026-05-06 20:26 45.03829 39.15282 120 ft 14 kts 289°
2026-05-06 20:26 45.03810 39.15147 121 ft 14 kts 244°
2026-05-06 20:26 45.03762 39.15023 119 ft 14 kts 241°
2026-05-06 20:27 45.03713 39.14900 119 ft 14 kts 240°
2026-05-06 20:27 45.03665 39.14778 119 ft 14 kts 241°
2026-05-06 20:27 45.03624 39.14672 119 ft 7 kts 245°
2026-05-06 20:27 45.03634 39.14606 121 ft 7 kts 316°
2026-05-06 20:28 45.03678 39.14560 123 ft 8 kts 326°
2026-05-06 20:28 45.03698 39.14541 121 ft 0 kts 326°